TimeCST,TemperatureF,Dew PointF,Humidity,Sea Level PressureIn,VisibilityMPH,Wind Direction,Wind SpeedMPH,Gust SpeedMPH,PrecipitationIn,Events,Conditions,WindDirDegrees,DateUTC
12:00 AM,46.4,44.6,93,30.28,3.0,NNW,20.7,-,N/A,,Overcast,340,2013-01-05 06:00:00
12:53 AM,46.9,43.0,86,30.27,8.0,NNW,20.7,26.5,0.00,,Overcast,340,2013-01-05 06:53:00
1:53 AM,48.0,42.1,80,30.26,8.0,NNW,18.4,-,N/A,,Overcast,340,2013-01-05 07:53:00
2:09 AM,48.2,42.8,82,30.25,9.0,NNW,18.4,27.6,N/A,,Overcast,330,2013-01-05 08:09:00
2:53 AM,48.0,41.0,77,30.25,9.0,NNW,18.4,-,N/A,,Overcast,330,2013-01-05 08:53:00
3:53 AM,48.0,39.9,74,30.25,9.0,NNW,18.4,25.3,N/A,,Overcast,330,2013-01-05 09:53:00
4:53 AM,48.0,39.0,71,30.26,9.0,NNW,20.7,28.8,N/A,,Overcast,340,2013-01-05 10:53:00
5:53 AM,48.0,39.0,71,30.27,9.0,NNW,21.9,29.9,N/A,,Overcast,340,2013-01-05 11:53:00
6:53 AM,46.9,39.0,74,30.28,9.0,NNW,19.6,27.6,N/A,,Overcast,340,2013-01-05 12:53:00
7:53 AM,48.0,39.9,74,30.30,8.0,NNW,19.6,27.6,N/A,,Overcast,340,2013-01-05 13:53:00
8:53 AM,48.0,39.9,74,30.32,8.0,NNW,21.9,27.6,N/A,,Overcast,340,2013-01-05 14:53:00
9:53 AM,48.9,41.0,74,30.33,8.0,NNW,17.3,25.3,N/A,,Overcast,340,2013-01-05 15:53:00
10:53 AM,48.9,42.1,77,30.33,8.0,NNW,16.1,-,N/A,,Overcast,330,2013-01-05 16:53:00
11:25 AM,48.2,42.8,82,30.32,8.0,NW,17.3,-,N/A,,Overcast,320,2013-01-05 17:25:00
11:53 AM,48.9,43.0,80,30.30,8.0,NNW,18.4,-,N/A,,Overcast,330,2013-01-05 17:53:00
12:53 PM,50.0,44.1,80,30.26,6.0,NNW,18.4,25.3,N/A,,Haze,330,2013-01-05 18:53:00
1:53 PM,50.0,46.0,86,30.24,4.0,NNW,17.3,-,0.00,Rain,Light Rain,330,2013-01-05 19:53:00
2:53 PM,51.1,46.9,86,30.23,8.0,NNW,17.3,21.9,0.00,,Overcast,340,2013-01-05 20:53:00
3:53 PM,51.1,46.0,83,30.22,8.0,North,17.3,25.3,N/A,,Overcast,350,2013-01-05 21:53:00
4:53 PM,51.1,46.0,83,30.22,8.0,North,17.3,-,N/A,,Overcast,350,2013-01-05 22:53:00
6:53 PM,51.1,46.0,83,30.23,9.0,NNW,12.7,-,N/A,,Overcast,340,2013-01-06 00:53:00
7:53 PM,51.1,46.0,83,30.24,9.0,NNW,15.0,-,N/A,,Overcast,330,2013-01-06 01:53:00
8:53 PM,51.1,46.0,83,30.26,9.0,NNW,12.7,-,N/A,,Overcast,330,2013-01-06 02:53:00
9:53 PM,52.0,46.0,80,30.27,10.0,NNW,13.8,-,N/A,,Overcast,330,2013-01-06 03:53:00
10:53 PM,52.0,46.0,80,30.26,10.0,NW,12.7,-,N/A,,Overcast,320,2013-01-06 04:53:00
11:53 PM,51.1,46.0,83,30.25,9.0,NW,11.5,-,N/A,,Overcast,320,2013-01-06 05:53:00